SCP
0 0 0 0 0 0 0 0 0 0 0 0 0 0 0 0 0 0 0 0 0 0 0 0 0 0 0 0 0 0 0 0 0 0 0 0 0 0 0 0 0 0 0
0 0 0 0 0 0 0 0 0 0 0 0 0 0 0 0 0 0 0 0 0 0 0 0 0 0 0 0 0 0 0 0 0 0 0 0 0 0 0 0 0 0 0
0 0 0 0 0 0 0 0 0 0 0 0 0 0 0 0 0 0 0 0 0 0 0 0 0 0 0 0 0 0 0 0 0 0 0 0 0 0 0 0 0 0 0
0 0 0 0 0 0 0 0 0 0 0 0 0 0 0 0 0 0 0 0 0 0 0 0 0 0 0 0 0 0 0 0 0 0 0 0 0 0 0 0 0 0 0
0 0 0 0 0 0 0 0 0 0 0 0 0 0 0 0 0 0 0 0 0 0 0 0 0 0 0 0 0 0 0 0 0 0 0 0 0 0 0 0 0 0 0
0 0 0 0 0 0 0 0 0 0 0 0 0 0 0 0 0 0 0 0 0 0 0 0 0 0 0 0 0 0 0 0 0 0 0 0 0 0 0 0 0 0 0
0 0 0 0 0 0 0 0 0 0 0 0 0 0 0 0 0 0 0 0 0 0 0 0 0 0 0 0 0 0 0 0 0 0 0 0 0 0 0 0 0 0 0
0 0 0 0 0 0 0 0 0 0 0 0 0 0 0 0 0 0 0 0 0 0 0 0 0 0 0 0 0 0 0 0 0 0 0 0 0 0 0 0 0 0 0
0 0 0 0 0 0 0 0 0 0 0 0 0 0 0 0 0 0 0 0 0 0 0 0 0 0 0 0 0 0 0 0 0 0 0 0 0 0 0 0 0 0 0
0 0 0 0 0 0 0 0 0 0 0 0 0 0 0 0 0 0 0 0 0 0 0 0 0 0 0 0 0 0 0 0 0 0 0 0 0 0 0 0 0 0 0
0 0 0 0 0 0 0 0 0 0 0 0 0 0 0 0 0 0 0 0 0 0 0 0 0 0 0 0 0 -0 0 0 0 0 0 0 0 0 0 0 0 0 0
0 0 0 0 0 0 0 0 0 0 0 0 0 0 0 0 0 0 0 0 0 0 0 0 0 0 0 0 0 0 0 0 0 0 0 0 0 0 0 0 0 0 0
0 0 0 0 0 0 0 0 0 0 0 0 0 0 0 0 0 0 0 0 0 0 0 0 0 0 0 0 0 0 0 0 0 0 0 0 0 0 0 0 0 0 0
0 0 0 0 0 0 0 0 0 0 0 0 0 0 0 0 0 0 0 0 -0 0 0 0 0 0 0 0 0 0 0 0 0 0 0 0 0 0 0 0 0 0 0
0 0 0 0 0 0 0 0 0 0 0 0 0 0 0 0 0 0 0 0 0 0 0 0 0 0 0 0 0 0 0 0 0 0 0 0 0 0 0 0 0 0 0
0 0 0 0 0 0 0 0 0 0 0 0 0 0 0 0 0 0 0 0 0 0 0 0 0 0 0 0 0 0 0 0 0 0 0 0 0 0 0 0 0 0 0
0 0 0 0 0 0 0 0 0 0 0 0 0 0 0 0 0 0 0 0 0 0 0 0 0 0 0 0 0 0 0 0 0 -0 -0 0 0 0 0 0 0 0 0
0 0 0 0 0 0 0 0 0 0 0 0 0 0 0 0 0 0 0 0 0 0 0 0 0 0 0 0 0 0 0 -0 0 -0 -0 0 0 0 0 0 0 0 0
0 0 0 0 0 0 0 0 0 0 0 0 0 0 0 0 0 0 0 0 0 0 0 0 0 0 0 0 0 0 0 0 -0 0 -0 0 0 0 0 0 0 0 0
0 0 0 0 0 0 0 0 0 0 0 0 0 0 0 0 0 0 0 0 0 0 0 0 0 0 0 0 0 0 0 0 0 0 0 0 0 0 0 0 0 0 0
0 0 0 0 0 0 0 0 0 0 0 0 0 0 0 0 0 0 0 0 0 0 0 0 0 0 0 0 0 0 0 0 0 0 0 0 0 0 0 0 0 0 0
0 0 0 0 0 0 0 0 0 0 0 0 0 0 0 0 0 0 0 0 0 0 0 0 0 0 0 0 0 0 0 0 0 0 0 0 0 0 0 0 0 0 0
0 0 0 0 0 0 0 0 0 0 0 0 0 0 0 0 0 0 0 0 0 0 0 0 0 0 0 0 0 0 0 0 0 0 0 0 0 0 0 0 0 0 0
0 0 0 0 0 0 0 0 0 0 0 0 0 0 0 0 0 0 0 0 0 0 0 0 0 0 0 0 0 0 0 0 0 0 0 0 0 0 0 0 0 0 0
0 0 0 0 0 0 0 0 0 0 0 0 0 0 0 0 0 0 0 0 0 0 0 0 0 0 0 0 0 0 0 0 0 0 0 0 0 0 0 0 0 0 0
0 0 0 0 0 0 0 0 0 0 0 0 0 0 0 0 0 0 0 0 0 0 0 0 0 0 0 0 0 0 0 0 0 0 0 0 0 0 0 0 0 0 -0
Wind_Speed_500mb
6 10 15 16 15 19 23 32 28 31 30 30 28 27 28 27 27 35 37 35 34 34 31 35 35 32 32 32 33 33 35 38 42 39 37 38 41 42 45 44 44 46 48
9 13 12 13 17 21 25 27 29 28 32 26 28 26 28 31 31 29 29 25 25 31 35 33 35 36 36 35 35 37 40 41 37 39 42 40 42 43 44 46 47 48 50
11 12 14 18 22 22 17 22 22 26 28 25 26 27 24 24 25 27 23 23 27 33 29 36 34 38 36 39 44 45 46 46 44 45 47 48 47 48 48 49 49 49 51
13 15 15 22 19 20 22 20 22 23 24 25 27 26 26 25 20 23 21 27 38 31 35 29 44 40 45 44 42 42 44 41 44 49 44 44 46 49 53 55 54 55 54
13 16 18 17 16 17 20 20 20 23 25 26 30 28 28 20 21 16 10 26 19 30 44 33 39 48 41 40 41 41 36 43 42 44 46 49 51 54 58 57 55 52 53
13 17 14 11 11 14 15 17 20 21 25 28 30 32 22 16 13 19 15 20 21 40 36 50 49 42 45 41 39 35 41 41 45 48 52 55 59 63 65 65 63 60 61
13 11 9 8 10 12 16 19 20 23 28 35 39 37 26 7 20 14 34 21 36 25 47 46 47 32 51 41 40 45 47 45 48 58 66 68 70 70 70 69 68 66 62
5 4 5 7 11 14 16 20 25 27 30 36 38 26 25 17 9 33 14 34 28 41 46 56 40 58 40 39 46 47 46 48 68 81 77 76 76 73 71 68 64 64 64
3 5 8 10 12 15 20 25 29 32 32 29 28 23 12 9 46 24 30 27 34 46 58 44 54 35 46 38 60 48 53 67 85 87 84 81 77 73 75 69 68 67 66
5 7 9 11 15 19 23 28 30 31 30 31 21 18 12 20 13 28 45 46 47 59 57 50 35 45 42 56 50 59 67 87 85 83 82 81 82 82 73 73 72 71 70
5 6 8 13 20 26 29 28 27 26 28 27 28 30 28 21 13 34 33 58 61 58 35 26 35 32 46 55 51 71 81 73 72 72 74 76 80 81 82 80 76 74 74
6 8 16 22 26 27 28 28 28 28 28 25 24 26 28 30 35 36 50 61 59 56 10 38 33 43 51 51 61 75 70 68 70 71 72 75 77 79 79 80 81 80 78
12 17 21 26 27 26 26 26 27 27 27 28 28 28 27 27 29 34 41 53 58 48 35 39 27 37 47 58 74 77 78 80 80 82 83 81 77 82 85 85 84 83 82
18 24 29 26 23 22 24 26 27 27 27 27 27 28 29 30 32 36 41 51 61 44 37 33 41 49 74 78 81 86 84 86 86 82 83 78 84 78 83 83 81 83 84
31 23 21 18 19 22 24 25 26 27 27 28 29 30 30 32 34 35 38 41 46 44 54 39 77 81 84 86 85 84 87 89 84 81 81 87 81 80 84 83 85 83 78
20 15 15 17 20 23 24 23 25 28 29 32 33 33 33 33 34 35 37 39 40 44 41 74 79 84 87 86 84 88 89 93 96 94 98 89 87 85 87 81 83 78 80
14 14 16 17 20 21 22 25 27 29 31 32 32 32 33 34 33 34 37 41 44 49 62 77 80 86 87 88 94 94 97 102 106 107 102 92 85 84 78 77 76 83 79
15 16 16 18 20 20 23 25 27 29 29 31 32 34 34 33 34 37 42 46 49 53 63 82 84 86 88 90 95 101 105 106 108 107 104 90 80 81 80 80 85 89 88
16 16 17 18 20 23 25 27 28 29 31 33 33 34 35 36 38 42 47 51 55 62 69 74 84 84 88 95 102 103 103 110 108 107 101 74 76 89 85 86 83 78 78
18 17 18 19 22 25 27 28 30 30 31 33 35 35 37 39 44 47 52 55 61 68 67 69 77 84 90 94 90 101 117 107 108 109 96 76 99 91 86 77 75 74 73
18 19 20 22 25 28 28 28 31 32 31 33 35 34 37 42 46 47 49 53 63 63 64 67 76 82 84 85 87 99 100 102 98 66 107 106 102 94 86 78 75 72 81
20 22 23 24 28 31 31 30 30 32 33 35 35 35 38 42 46 47 49 56 57 58 59 65 69 74 72 82 88 83 87 92 88 90 107 108 94 90 94 87 81 76 71
23 25 27 29 30 30 32 32 32 33 35 37 37 37 38 41 44 48 55 61 57 54 53 54 62 68 77 76 73 80 79 81 91 91 87 102 91 98 91 88 80 69 77
28 30 32 32 32 30 32 34 34 35 37 36 38 37 37 40 43 51 62 61 60 58 56 52 53 64 61 60 59 60 70 80 81 75 76 84 92 98 99 91 87 78 86
34 35 35 35 34 32 34 36 36 37 37 36 34 34 38 41 48 55 58 61 60 59 58 56 57 58 59 54 47 58 60 66 81 82 81 69 90 91 103 98 97 97 94
40 40 38 36 35 35 36 39 40 39 36 33 31 33 37 42 49 53 54 56 58 58 62 63 60 59 56 55 50 44 49 56 64 83 76 78 82 79 82 100 101 99 97
Wind_Direction_500mb
337 340 337 341 328 325 312 316 319 323 328 331 337 336 340 332 323 311 312 317 326 344 353 350 349 348 348 345 340 336 333 333 330 333 328 321 315 312 313 311 308 307 308
325 324 331 315 316 312 312 320 322 330 330 333 326 316 311 315 316 322 329 340 343 346 345 347 345 344 341 336 332 330 330 329 335 332 324 323 322 325 325 321 315 311 310
313 321 311 312 314 308 319 312 320 321 326 325 329 336 336 339 336 332 336 354 346 338 342 334 340 339 340 339 337 335 333 334 337 334 329 326 327 323 320 315 317 314 312
305 294 294 308 312 315 321 328 325 333 336 340 343 344 347 341 341 341 348 352 343 332 333 329 338 344 340 336 336 335 330 333 322 324 334 325 324 318 318 319 319 317 316
290 302 314 318 317 318 332 339 343 347 345 345 347 349 348 359 353 348 325 342 326 312 323 328 338 335 336 334 333 329 342 331 347 343 341 338 332 325 320 316 316 316 316
295 306 313 320 330 337 347 353 353 351 341 347 343 345 352 23 330 304 302 328 300 317 313 325 334 337 341 336 333 339 334 345 344 341 338 333 328 324 322 320 319 318 316
307 310 330 347 351 356 0 358 3 359 346 344 340 341 352 342 266 278 319 308 315 312 320 331 334 339 336 334 329 330 332 332 332 330 326 323 320 318 317 315 314 314 316
309 350 10 15 7 9 7 2 356 355 349 348 345 357 343 0 228 309 313 322 313 315 329 336 347 338 342 333 332 329 330 331 332 330 329 326 324 321 320 320 321 318 316
64 41 24 18 19 8 356 350 346 342 345 356 345 1 335 313 322 322 327 332 326 330 336 344 335 345 335 332 329 332 334 330 328 329 329 327 326 325 322 324 321 318 316
57 35 28 16 1 351 344 338 342 344 346 348 351 351 325 310 323 315 324 332 322 334 346 337 355 343 327 326 332 331 329 328 327 327 327 326 324 325 327 325 322 319 317
80 45 11 356 348 342 339 342 346 346 351 358 355 351 351 355 299 317 319 321 331 347 358 13 343 319 316 324 328 323 322 323 322 324 326 325 323 322 322 322 323 321 317
45 11 356 344 339 341 342 347 352 356 357 359 355 353 349 347 339 337 326 331 336 355 49 350 326 308 314 317 318 322 330 333 333 332 331 328 326 325 323 321 320 318 317
17 354 340 337 339 345 348 352 352 352 349 350 352 354 349 346 339 335 333 334 337 348 325 338 320 319 315 311 329 334 337 337 337 335 334 330 327 325 322 320 318 317 314
356 334 328 328 336 346 349 348 346 346 347 347 348 350 350 347 346 347 347 344 342 337 319 332 328 320 327 334 336 339 337 337 337 335 332 328 325 323 320 319 318 315 313
309 304 313 328 336 343 343 343 341 341 343 346 349 350 350 350 351 349 348 349 347 335 327 331 326 334 335 337 337 335 334 336 334 334 330 328 325 323 318 317 316 313 312
279 302 317 329 334 339 338 338 339 343 346 348 348 348 348 348 349 347 347 345 342 332 318 323 330 332 333 334 335 335 334 336 334 334 332 329 325 322 320 317 316 313 308
300 310 323 328 331 333 333 338 342 342 344 344 342 340 341 342 342 343 343 339 335 331 323 324 328 332 332 335 335 335 335 334 332 333 333 328 325 325 320 315 310 308 305
300 309 316 319 323 328 334 335 336 336 335 334 334 335 336 335 337 340 338 337 334 333 329 326 330 332 335 337 335 334 334 334 333 335 333 329 327 323 324 316 311 308 307
290 300 309 318 322 328 327 327 326 327 328 328 330 329 327 331 335 334 335 335 334 335 333 328 329 334 335 338 334 334 333 333 334 334 335 332 329 325 324 322 319 315 311
286 300 307 314 317 318 319 317 317 322 325 325 322 320 323 329 331 332 334 337 337 333 333 333 331 332 336 337 335 332 331 333 333 337 334 331 333 331 332 329 325 319 321
287 297 303 309 312 308 307 311 316 320 321 317 313 315 321 322 326 329 333 334 335 335 334 332 331 330 333 334 332 331 330 328 331 329 332 335 336 335 337 334 327 321 319
288 292 297 299 299 304 310 310 312 314 314 309 309 314 317 320 323 327 328 332 337 335 334 331 327 328 327 327 329 332 326 327 326 334 332 331 338 335 337 336 335 328 323
283 286 289 287 292 300 305 309 310 309 309 307 308 312 315 316 323 324 329 333 335 336 332 327 327 326 322 328 328 324 323 318 318 326 333 330 335 331 334 334 337 335 327
276 277 280 285 290 297 304 306 308 307 305 306 308 310 314 322 327 327 328 332 333 334 333 333 325 320 323 323 318 318 313 315 317 324 332 326 332 330 331 333 337 332 333
271 273 276 282 289 296 301 306 303 300 301 301 302 313 320 322 326 328 328 329 329 332 333 335 330 328 328 327 326 317 325 324 321 322 329 326 327 324 327 329 332 333 335
268 270 274 282 288 295 302 298 295 295 295 300 314 313 315 319 323 327 326 327 328 333 332 332 333 333 333 332 330 330 326 323 320 318 327 327 323 327 325 325 329 333 335
Wind_Speed_850mb
6 10 15 16 15 19 23 32 28 31 30 30 28 27 28 27 27 35 37 35 34 34 31 35 35 32 32 32 33 33 35 38 42 39 37 38 41 42 45 44 44 46 48
9 13 12 13 17 21 25 27 29 28 32 26 28 26 28 31 31 29 29 25 25 31 35 33 35 36 36 35 35 37 40 41 37 39 42 40 42 43 44 46 47 48 50
11 12 14 18 22 22 17 22 22 26 28 25 26 27 24 24 25 27 23 23 27 33 29 36 34 38 36 39 44 45 46 46 44 45 47 48 47 48 48 49 49 49 51
13 15 15 22 19 20 22 20 22 23 24 25 27 26 26 25 20 23 21 27 38 31 35 29 44 40 45 44 42 42 44 41 44 49 44 44 46 49 53 55 54 55 54
13 16 18 17 16 17 20 20 20 23 25 26 30 28 28 20 21 16 10 26 19 30 44 33 39 48 41 40 41 41 36 43 42 44 46 49 51 54 58 57 55 52 53
13 17 14 11 11 14 15 17 20 21 25 28 30 32 22 16 13 19 15 20 21 40 36 50 49 42 45 41 39 35 41 41 45 48 52 55 59 63 65 65 63 60 61
13 11 9 8 10 12 16 19 20 23 28 35 39 37 26 7 20 14 34 21 36 25 47 46 47 32 51 41 40 45 47 45 48 58 66 68 70 70 70 69 68 66 62
5 4 5 7 11 14 16 20 25 27 30 36 38 26 25 17 9 33 14 34 28 41 46 56 40 58 40 39 46 47 46 48 68 81 77 76 76 73 71 68 64 64 64
3 5 8 10 12 15 20 25 29 32 32 29 28 23 12 9 46 24 30 27 34 46 58 44 54 35 46 38 60 48 53 67 85 87 84 81 77 73 75 69 68 67 66
5 7 9 11 15 19 23 28 30 31 30 31 21 18 12 20 13 28 45 46 47 59 57 50 35 45 42 56 50 59 67 87 85 83 82 81 82 82 73 73 72 71 70
5 6 8 13 20 26 29 28 27 26 28 27 28 30 28 21 13 34 33 58 61 58 35 26 35 32 46 55 51 71 81 73 72 72 74 76 80 81 82 80 76 74 74
6 8 16 22 26 27 28 28 28 28 28 25 24 26 28 30 35 36 50 61 59 56 10 38 33 43 51 51 61 75 70 68 70 71 72 75 77 79 79 80 81 80 78
12 17 21 26 27 26 26 26 27 27 27 28 28 28 27 27 29 34 41 53 58 48 35 39 27 37 47 58 74 77 78 80 80 82 83 81 77 82 85 85 84 83 82
18 24 29 26 23 22 24 26 27 27 27 27 27 28 29 30 32 36 41 51 61 44 37 33 41 49 74 78 81 86 84 86 86 82 83 78 84 78 83 83 81 83 84
31 23 21 18 19 22 24 25 26 27 27 28 29 30 30 32 34 35 38 41 46 44 54 39 77 81 84 86 85 84 87 89 84 81 81 87 81 80 84 83 85 83 78
20 15 15 17 20 23 24 23 25 28 29 32 33 33 33 33 34 35 37 39 40 44 41 74 79 84 87 86 84 88 89 93 96 94 98 89 87 85 87 81 83 78 80
14 14 16 17 20 21 22 25 27 29 31 32 32 32 33 34 33 34 37 41 44 49 62 77 80 86 87 88 94 94 97 102 106 107 102 92 85 84 78 77 76 83 79
15 16 16 18 20 20 23 25 27 29 29 31 32 34 34 33 34 37 42 46 49 53 63 82 84 86 88 90 95 101 105 106 108 107 104 90 80 81 80 80 85 89 88
16 16 17 18 20 23 25 27 28 29 31 33 33 34 35 36 38 42 47 51 55 62 69 74 84 84 88 95 102 103 103 110 108 107 101 74 76 89 85 86 83 78 78
18 17 18 19 22 25 27 28 30 30 31 33 35 35 37 39 44 47 52 55 61 68 67 69 77 84 90 94 90 101 117 107 108 109 96 76 99 91 86 77 75 74 73
18 19 20 22 25 28 28 28 31 32 31 33 35 34 37 42 46 47 49 53 63 63 64 67 76 82 84 85 87 99 100 102 98 66 107 106 102 94 86 78 75 72 81
20 22 23 24 28 31 31 30 30 32 33 35 35 35 38 42 46 47 49 56 57 58 59 65 69 74 72 82 88 83 87 92 88 90 107 108 94 90 94 87 81 76 71
23 25 27 29 30 30 32 32 32 33 35 37 37 37 38 41 44 48 55 61 57 54 53 54 62 68 77 76 73 80 79 81 91 91 87 102 91 98 91 88 80 69 77
28 30 32 32 32 30 32 34 34 35 37 36 38 37 37 40 43 51 62 61 60 58 56 52 53 64 61 60 59 60 70 80 81 75 76 84 92 98 99 91 87 78 86
34 35 35 35 34 32 34 36 36 37 37 36 34 34 38 41 48 55 58 61 60 59 58 56 57 58 59 54 47 58 60 66 81 82 81 69 90 91 103 98 97 97 94
40 40 38 36 35 35 36 39 40 39 36 33 31 33 37 42 49 53 54 56 58 58 62 63 60 59 56 55 50 44 49 56 64 83 76 78 82 79 82 100 101 99 97
Wind_Direction_850mb
337 340 337 341 328 325 312 316 319 323 328 331 337 336 340 332 323 311 312 317 326 344 353 350 349 348 348 345 340 336 333 333 330 333 328 321 315 312 313 311 308 307 308
325 324 331 315 316 312 312 320 322 330 330 333 326 316 311 315 316 322 329 340 343 346 345 347 345 344 341 336 332 330 330 329 335 332 324 323 322 325 325 321 315 311 310
313 321 311 312 314 308 319 312 320 321 326 325 329 336 336 339 336 332 336 354 346 338 342 334 340 339 340 339 337 335 333 334 337 334 329 326 327 323 320 315 317 314 312
305 294 294 308 312 315 321 328 325 333 336 340 343 344 347 341 341 341 348 352 343 332 333 329 338 344 340 336 336 335 330 333 322 324 334 325 324 318 318 319 319 317 316
290 302 314 318 317 318 332 339 343 347 345 345 347 349 348 359 353 348 325 342 326 312 323 328 338 335 336 334 333 329 342 331 347 343 341 338 332 325 320 316 316 316 316
295 306 313 320 330 337 347 353 353 351 341 347 343 345 352 23 330 304 302 328 300 317 313 325 334 337 341 336 333 339 334 345 344 341 338 333 328 324 322 320 319 318 316
307 310 330 347 351 356 0 358 3 359 346 344 340 341 352 342 266 278 319 308 315 312 320 331 334 339 336 334 329 330 332 332 332 330 326 323 320 318 317 315 314 314 316
309 350 10 15 7 9 7 2 356 355 349 348 345 357 343 0 228 309 313 322 313 315 329 336 347 338 342 333 332 329 330 331 332 330 329 326 324 321 320 320 321 318 316
64 41 24 18 19 8 356 350 346 342 345 356 345 1 335 313 322 322 327 332 326 330 336 344 335 345 335 332 329 332 334 330 328 329 329 327 326 325 322 324 321 318 316
57 35 28 16 1 351 344 338 342 344 346 348 351 351 325 310 323 315 324 332 322 334 346 337 355 343 327 326 332 331 329 328 327 327 327 326 324 325 327 325 322 319 317
80 45 11 356 348 342 339 342 346 346 351 358 355 351 351 355 299 317 319 321 331 347 358 13 343 319 316 324 328 323 322 323 322 324 326 325 323 322 322 322 323 321 317
45 11 356 344 339 341 342 347 352 356 357 359 355 353 349 347 339 337 326 331 336 355 49 350 326 308 314 317 318 322 330 333 333 332 331 328 326 325 323 321 320 318 317
17 354 340 337 339 345 348 352 352 352 349 350 352 354 349 346 339 335 333 334 337 348 325 338 320 319 315 311 329 334 337 337 337 335 334 330 327 325 322 320 318 317 314
356 334 328 328 336 346 349 348 346 346 347 347 348 350 350 347 346 347 347 344 342 337 319 332 328 320 327 334 336 339 337 337 337 335 332 328 325 323 320 319 318 315 313
309 304 313 328 336 343 343 343 341 341 343 346 349 350 350 350 351 349 348 349 347 335 327 331 326 334 335 337 337 335 334 336 334 334 330 328 325 323 318 317 316 313 312
279 302 317 329 334 339 338 338 339 343 346 348 348 348 348 348 349 347 347 345 342 332 318 323 330 332 333 334 335 335 334 336 334 334 332 329 325 322 320 317 316 313 308
300 310 323 328 331 333 333 338 342 342 344 344 342 340 341 342 342 343 343 339 335 331 323 324 328 332 332 335 335 335 335 334 332 333 333 328 325 325 320 315 310 308 305
300 309 316 319 323 328 334 335 336 336 335 334 334 335 336 335 337 340 338 337 334 333 329 326 330 332 335 337 335 334 334 334 333 335 333 329 327 323 324 316 311 308 307
290 300 309 318 322 328 327 327 326 327 328 328 330 329 327 331 335 334 335 335 334 335 333 328 329 334 335 338 334 334 333 333 334 334 335 332 329 325 324 322 319 315 311
286 300 307 314 317 318 319 317 317 322 325 325 322 320 323 329 331 332 334 337 337 333 333 333 331 332 336 337 335 332 331 333 333 337 334 331 333 331 332 329 325 319 321
287 297 303 309 312 308 307 311 316 320 321 317 313 315 321 322 326 329 333 334 335 335 334 332 331 330 333 334 332 331 330 328 331 329 332 335 336 335 337 334 327 321 319
288 292 297 299 299 304 310 310 312 314 314 309 309 314 317 320 323 327 328 332 337 335 334 331 327 328 327 327 329 332 326 327 326 334 332 331 338 335 337 336 335 328 323
283 286 289 287 292 300 305 309 310 309 309 307 308 312 315 316 323 324 329 333 335 336 332 327 327 326 322 328 328 324 323 318 318 326 333 330 335 331 334 334 337 335 327
276 277 280 285 290 297 304 306 308 307 305 306 308 310 314 322 327 327 328 332 333 334 333 333 325 320 323 323 318 318 313 315 317 324 332 326 332 330 331 333 337 332 333
271 273 276 282 289 296 301 306 303 300 301 301 302 313 320 322 326 328 328 329 329 332 333 335 330 328 328 327 326 317 325 324 321 322 329 326 327 324 327 329 332 333 335
268 270 274 282 288 295 302 298 295 295 295 300 314 313 315 319 323 327 326 327 328 333 332 332 333 333 333 332 330 330 326 323 320 318 327 327 323 327 325 325 329 333 335